LZ2SMX-2 Weather Reports


Display with metric or nautical units.
time (UTC)temp
F
wind
direction
speed
MPH
gust
MPH
rain 1hr
in
rain 24hr
in
rain mn
in
humidity
%
barometer
mb
20260906055943 71 315 0.0 1.0 0.00 0.00 0.00 66 992.0
20260906053943 69 315 1.0 3.0 0.00 0.00 0.00 68 992.0
20260906051943 68 315 1.0 4.0 0.00 0.00 0.00 71 992.0
20260906045944 66 315 0.0 2.0 0.00 0.00 0.00 71 992.0
20260906043944 64 315 0.0 1.0 0.00 0.00 0.00 70 992.0
20260906041945 66 315 0.0 0.0 0.00 0.00 0.00 68 991.0
20260906035944 66 337 0.0 2.0 0.00 0.00 0.00 66 991.0
20260906033944 66 315 0.0 2.0 0.00 0.00 0.00 64 990.0
20260906031944 68 337 0.0 2.0 0.00 0.00 0.00 63 990.0
20260906025944 68 337 2.0 5.0 0.00 0.00 0.00 61 989.0
20260906023943 69 337 3.0 5.0 0.00 0.00 0.00 60 989.0
20260906021943 69 315 1.0 2.0 0.00 0.00 0.00 60 989.0
20260906015944 68 315 1.0 3.0 0.00 0.00 0.00 63 989.0
20260906013943 66 315 0.0 0.0 0.00 0.00 0.00 65 989.0
20260906011945 66 315 0.0 0.0 0.00 0.00 0.00 63 989.0
20260906005943 66 315 0.0 0.0 0.00 0.00 0.00 63 989.0
20260906003944 66 315 0.0 0.0 0.00 0.00 0.00 63 989.0
20260906001944 68 315 0.0 0.0 0.00 0.00 0.00 61 989.0
20260905235945 68 315 0.0 0.0 0.00 0.00 0.00 59 989.0
20260905233944 68 315 0.0 0.0 0.00 0.00 0.00 60 989.0
20260905231944 68 315 0.0 0.0 0.00 0.00 0.00 61 990.0
20260905225944 68 315 0.0 0.0 0.00 0.00 0.00 61 989.0
20260905223944 66 292 0.0 0.0 0.00 0.00 0.00 63 990.0
20260905221944 66 292 0.0 0.0 0.00 0.00 0.00 64 990.0
20260905215944 66 225 0.0 0.0 0.00 0.00 0.00 65 990.0
20260905213943 66 202 0.0 0.0 0.00 0.00 0.00 65 990.0
20260905211944 66 202 0.0 0.0 0.00 0.00 0.00 65 990.0
20260905205943 66 202 0.0 0.0 0.00 0.00 0.00 64 990.0
20260905203945 68 202 0.0 0.0 0.00 0.00 0.00 64 990.0
20260905201945 68 225 0.0 0.0 0.00 0.00 0.00 62 990.0
20260905195944 68 225 0.0 0.0 0.00 0.00 0.00 62 990.0
20260905193944 68 225 0.0 0.0 0.00 0.00 0.00 60 990.0
20260905191943 69 202 0.0 0.0 0.00 0.00 0.00 60 990.0
20260905185944 69 202 0.0 0.0 0.00 0.00 0.00 58 990.0
20260905183944 71 180 0.0 0.0 0.00 0.00 0.00 57 990.0
20260905181944 71 202 0.0 0.0 0.00 0.00 0.00 56 990.0
20260905175943 73 180 0.0 0.0 0.00 0.00 0.00 55 990.0
20260905173943 73 202 0.0 0.0 0.00 0.00 0.00 56 989.0
20260905171944 75 202 0.0 1.0 0.00 0.00 0.00 55 989.0
20260905165944 77 135 0.0 0.0 0.00 0.00 0.00 54 989.0
20260905163945 78 157 0.0 0.0 0.00 0.00 0.00 51 990.0
20260905161943 80 157 0.0 2.0 0.00 0.00 0.00 49 990.0
20260905155945 82 157 0.0 1.0 0.00 0.00 0.00 48 990.0
20260905153944 84 157 0.0 2.0 0.00 0.00 0.00 45 989.0
20260905151428 84 157 1.0 2.0 0.00 0.00 0.00 43 989.0
20260905145429 86 157 1.0 6.0 0.00 0.00 0.00 41 989.0
20260905143429 86 135 1.0 5.0 0.00 0.00 0.00 41 990.0
20260905141430 86 135 2.0 4.0 0.00 0.00 0.00 40 990.0
20260905135429 87 135 2.0 4.0 0.00 0.00 0.00 41 990.0
20260905133429 87 135 2.0 5.0 0.00 0.00 0.00 40 990.0
20260905131429 89 135 2.0 3.0 0.00 0.00 0.00 37 989.0
20260905125429 89 135 1.0 3.0 0.00 0.00 0.00 39 990.0
20260905123429 89 157 1.0 2.0 0.00 0.00 0.00 38 990.0
20260905121429 95 157 0.0 3.0 0.00 0.00 0.00 31 991.0
20260905115430 95 180 1.0 2.0 0.00 0.00 0.00 31 991.0
20260905113429 96 315 0.0 2.0 0.00 0.00 0.00 31 991.0
20260905111429 95 315 0.0 2.0 0.00 0.00 0.00 31 992.0
20260905105429 96 337 1.0 4.0 0.00 0.00 0.00 31 992.0
20260905103429 96 225 1.0 5.0 0.00 0.00 0.00 32 992.0
20260905101429 96 202 0.0 3.0 0.00 0.00 0.00 32 992.0
20260905095429 96 157 1.0 3.0 0.00 0.00 0.00 33 992.0
20260905093428 95 157 1.0 2.0 0.00 0.00 0.00 33 992.0
20260905091429 95 180 1.0 5.0 0.00 0.00 0.00 35 992.0
20260905085429 95 157 0.0 3.0 0.00 0.00 0.00 36 991.0
20260905083429 93 315 0.0 2.0 0.00 0.00 0.00 38 991.0
20260905081429 91 315 0.0 1.0 0.00 0.00 0.00 39 992.0
20260905075429 89 315 1.0 2.0 0.00 0.00 0.00 41 992.0
20260905073429 87 315 1.0 3.0 0.00 0.00 0.00 43 991.0
20260905071429 87 292 0.0 1.0 0.00 0.00 0.00 45 992.0
20260905065430 84 315 0.0 0.0 0.00 0.00 0.00 52 992.0
20260905063430 80 292 0.0 0.0 0.00 0.00 0.00 57 991.0
20260905061430 77 292 0.0 0.0 0.00 0.00 0.00 65 992.0